Location: Bantry Bay
(33.9280°S, 18.3826°E)
Time: 18:53:30
(UTC+00:00)

Daily predictions for brighter satellites

Satellite Brightness Start Highest point End
(mag) Time Altitude Azimuth Time Altitude Azimuth Time Altitude Azimuth
SL-16 R/B 2.2 17:28:42 10° SSW 17:34:25 71° ESE 17:40:03 10° NNE
ASTEX 1 4.3 17:30:41 10° NE 17:34:55 29° ESE 17:39:13 10° SSE
CZ-4B R/B 3.7 17:29:58 10° S 17:35:41 75° WSW 17:41:21 10° NNW
Cosmos 540 Rocket 3.5 17:32:35 10° S 17:37:43 64° ESE 17:42:50 10° NNE
ATLAS 3B R/B 2.8 17:31:06 10° SSW 17:38:05 83° WNW 17:44:43 10° NNE
Cosmos 1862 Rocket 3.5 17:34:38 10° N 17:39:01 70° E 17:43:25 10° SSE
CZ-2D R/B 3.2 17:35:52 10° SSE 17:39:44 67° E 17:43:30 10° N
GP-B 3.1 17:35:18 10° S 17:39:48 69° E 17:44:14 10° N
ARGOS 4.3 17:37:03 10° SE 17:41:14 22° E 17:45:21 10° NE
CZ-2C R/B 0.7 17:43:23 10° WNW 17:46:35 66° NNE 17:49:48 10° E
CZ-4 R/B 1.9 17:44:33 10° SSE 17:48:12 35° E 17:51:45 10° NNE
H-2A R/B 4.4 17:44:52 10° S 17:49:01 38° WSW 17:53:11 10° NW
Cosmos 841 Rocket 3.4 17:43:51 10° SSW 17:49:04 75° ESE 17:54:13 10° NNE
Cosmos 1271 Rocket 4.4 17:45:37 10° NNW 17:49:20 41° WSW 17:53:10 10° S
Aureole 2 Rocket 3.5 17:50:39 10° NE 17:52:07 14° E 17:53:38 10° ESE
Okean 1-7 3.9 17:48:42 10° NNE 17:52:18 27° E 17:55:56 10° SSE
Meteor 1-18 Rocket 4.2 17:46:45 10° N 17:52:27 68° E 17:58:05 10° SSE
Cosmos 1238 Rocket 4.4 17:47:46 10° SSW 17:54:13 67° W 17:59:50 10° N
Okean 1 3.5 17:50:45 10° N 17:54:48 78° W 17:58:55 10° S
SME Rocket 3.7 17:51:25 10° N 17:55:10 60° W 17:59:56 10° SSW
COSMOS 2455 3.0 17:51:01 10° NNW 17:57:02 83° WSW 18:03:07 10° SSE
CZ-4 R/B 4.4 17:55:04 10° SSE 17:59:19 85° ENE 18:03:30 10° NNW
HJ-1C 4.3 17:59:39 10° SE 18:02:39 28° E 18:05:36 10° NNE
Cosmos 1733 Rocket 3.2 17:59:29 10° S 18:03:53 79° W 18:08:12 10° N
Meteor 2-9 Rocket 4.3 17:58:32 10° S 18:04:15 57° E 18:09:45 10° NNE
ISS -2.2 18:02:08 10° WSW 18:05:16 34° NW 18:08:22 10° NNE
Cosmos 2208 Rocket 4.1 18:02:32 10° SSW 18:08:01 69° ESE 18:13:24 10° NNE
Cosmos 2242 Rocket 3.6 18:05:23 10° N 18:09:41 56° E 18:14:05 10° SSE
OAO 2 Rocket 3.4 18:09:05 10° WNW 18:14:22 78° NNE 18:18:22 18° E
Cosmos 921 Rocket 4.1 18:10:53 10° SSW 18:14:56 44° W 18:18:55 10° N
Lacrosse 5 rocket 2.5 18:12:16 10° WNW 18:15:50 39° SW 18:19:22 10° SSE
Cosmos 1814 Rocket 4.0 18:11:47 10° SSW 18:16:59 85° WNW 18:22:08 10° NNE
Cosmos 968 Rocket 3.5 18:13:13 10° NNW 18:18:27 89° ENE 18:23:42 10° SSE
Cosmos 1743 4.3 18:15:15 10° SSW 18:18:53 38° W 18:22:28 10° NNW
CZ-2C R/B 4.3 18:15:27 10° S 18:21:02 50° WSW 18:26:39 10° NNW
Meteor 2-4 Rocket 3.7 18:16:14 10° N 18:22:05 77° E 18:27:52 10° SSE
CSL-04 Rocket 4.1 18:17:03 10° SSE 18:22:16 40° E 18:27:27 10° NNE
GPS 2-04 Rocket1 3.6 18:21:10 10° W 18:24:32 33° NNW 18:26:14 21° NNE
CZ-2C R/B 3.8 18:21:46 15° NNE 18:25:24 53° ESE 18:29:49 10° S
Okean-O 2.5 18:22:01 10° SSE 18:26:31 82° ENE 18:30:58 10° N
H-2A R/B 2.2 18:24:19 10° S 18:29:37 80° WSW 18:35:00 10° NNW
CSL-04 Debris 4.3 18:24:46 10° SSE 18:30:05 51° E 18:35:19 10° N
Cosmos 1975 2.8 18:29:37 10° S 18:33:41 86° W 18:37:37 10° N
APEX 4.3 18:31:06 10° NW 18:35:17 60° WSW 18:40:41 10° SSE
Cosmos 2263 Rocket 3.4 18:32:32 10° NW 18:37:52 43° WSW 18:43:19 10° S
Cosmos 1603 3.7 18:37:21 10° SSW 18:42:58 65° ESE 18:45:40 31° NE
Cosmos 1943 3.2 18:38:16 10° SSW 18:43:58 61° ESE 18:46:28 33° NE
Atlas Centaur 2 2.8 18:38:20 10° NW 18:44:03 34° NNE 18:45:06 31° NE
USA 215 3.4 18:39:50 10° SE 18:46:27 77° SW 18:53:00 10° NW
OAO 1 Rocket 4.4 18:41:20 10° WNW 18:46:40 71° NNE 18:48:35 40° E
YAOGAN 1 3.6 18:43:14 10° S 18:47:29 48° WSW 18:51:39 10° NNW
Cosmos 1908 Rocket 4.0 18:46:36 10° SSW 18:51:05 65° W 18:55:06 13° N
Cosmos 1535 Rocket 4.5 18:46:09 10° S 18:52:31 88° W 18:58:53 10° N
ATLAS 3B CENTAUR R/B 3.5 18:40:23 10° NW 18:53:12 43° N 18:55:56 33° NE
Cosmos 44 Rocket 3.3 18:50:32 10° N 18:55:11 53° ENE 18:55:11 53° ENE
Cosmos 1066 Rocket 4.2 18:57:23 25° NNE 19:00:49 60° E 19:06:31 10° SSE
Cosmos 1934 Rocket 4.4 19:00:37 10° SSW 19:06:40 60° W 19:12:36 10° N
MetOp-A 4.1 19:01:40 10° SSE 19:07:02 58° E 19:07:12 58° ENE
Meteor 1-12 Rocket 4.2 19:02:34 10° S 19:08:28 69° E 19:09:39 54° NE
Cosmos 1844 Rocket 2.5 19:05:06 10° N 19:10:39 67° ENE 19:16:18 10° SSE
Meteor 1-23 Rocket 4.3 19:11:05 56° E 19:11:05 56° E 19:16:51 10° SSE
EXPRESS MD2 3.6 19:09:58 10° SW 19:12:39 64° SSW 19:12:39 64° SSW
Helios 1A Rocket 4.0 19:09:27 10° S 19:13:28 45° WSW 19:17:24 10° NW
Cosmos 1782 Rocket 3.8 19:09:08 10° SSW 19:13:39 69° W 19:14:25 56° NNW
Cosmos 1354 Rocket 4.4 19:11:22 10° NNW 19:16:35 63° WSW 19:21:52 10° S
ARGOS 4.5 19:16:31 10° S 19:21:32 39° WSW 19:26:32 10° NW
CZ-2C R/B 3.2 19:22:52 10° W 19:24:06 21° W 19:24:06 21° W
BREEZE-M DEB (TANK) 4.3 19:23:43 10° SW 19:25:04 19° SSW 19:25:04 19° SSW
BREEZE M DEB (TANK) 3.8 19:30:26 10° SW 19:40:20 72° SSW 19:40:20 72° SSW
Cosmos 1727 Rocket 4.4 19:36:14 19° NNW 19:40:52 63° W 19:47:14 10° S
NOSS 3-1 (C) 3.9 19:41:12 10° SSW 19:45:49 47° S 19:45:49 47° S
